Kayseri, Turkey

6:48 AM +03 on May 30, 2017 (GMT +0300)
Erkilet Air Base

Weather History for LTAU - January, 2013

Change the Weather History Date:

Saturday, January 26, 2013

  Actual Average Record
Temperature  
Mean Temperature 41 °F -  
Max Temperature 52 °F 41 °F 52 °F (2013)
Min Temperature 30 °F 22 °F 0 °F (2008)
Degree Days  
Heating Degree Days 24    
Moisture  
Dew Point 30 °F    
Average Humidity 65    
Maximum Humidity 93    
Minimum Humidity 30    
Precipitation  
Precipitation 0.00 in - - ()
Sea Level Pressure  
Sea Level Pressure 29.85 in    
Wind  
Wind Speed 7 mph ()    
Max Wind Speed 23 mph    
Max Gust Speed 37 mph    
Visibility 6.1 miles    
Events      
Averages and records for this station are not official NWS values.
T = Trace of Precipitation, MM = Missing Value Source: Averaged Metar Reports

Daily Weather History Graph

Daily Weather History Graph

Search for Another Location

Airport or City:

Trip Planner

Search our weather history database for the weather conditions in past years. The results will help you decide how hot, cold, wet, or windy it might be!

Date:

Astronomy

Jan. 26, 2013 Rise Set
Actual Time 6:49 AM EET 4:52 PM EET
Civil Twilight 6:20 AM EET 5:21 PM EET
Nautical Twilight 5:48 AM EET 5:53 PM EET
Astronomical Twilight 5:17 AM EET 6:25 PM EET
Moon 4:27 PM EET (1/26) 5:54 AM EET (1/26)
Length of Visible Light 11h 00m
Length of Day
10h 03m
Waxing Gibbous, 99% of the Moon is Illuminated
Jan 26
Waxing Gibbous
Jan 27
Full
Feb 3
Last Quarter
Feb 10
New
Feb 17
First Quarter

Hourly Weather History & Observations

Time (EET) Temp. Windchill Dew Point Humidity Pressure Visibility Wind Dir Wind Speed Gust Speed Precip Events Conditions
12:20 AM 35.6 °F 30.7 °F 30.2 °F 81% 29.89 in 6.2 mi NNE 5.8 mph - N/A   Mostly Cloudy
12:50 AM 35.6 °F 29.9 °F 30.2 °F 81% 29.89 in 6.2 mi NNE 6.9 mph - N/A   Mostly Cloudy
1:20 AM 33.8 °F - 28.4 °F 81% 29.89 in 6.2 mi Calm Calm - N/A   Mostly Cloudy
1:50 AM 33.8 °F - 30.2 °F 87% 29.89 in 6.2 mi Calm Calm - N/A   Mostly Cloudy
2:00 AM 33 °F - 29 °F 80%  in 12 mi Calm Calm - -   Scattered Clouds
2:20 AM 30.2 °F - 28.4 °F 93% 29.86 in 6.2 mi Variable 1.2 mph - N/A   Mostly Cloudy
2:50 AM 32.0 °F 28.7 °F 30.2 °F 93% 29.86 in 6.2 mi North 3.5 mph - N/A   Mostly Cloudy
3:20 AM 32.0 °F - 30.2 °F 93% 29.86 in 6.2 mi SSE 2.3 mph - N/A   Mostly Cloudy
3:50 AM 32.0 °F - 28.4 °F 87% 29.86 in 6.2 mi Calm Calm - N/A   Mostly Cloudy
4:20 AM 32.0 °F - 30.2 °F 93% 29.86 in 6.2 mi Variable 1.2 mph - N/A   Mostly Cloudy
4:50 AM 32.0 °F 26.4 °F 30.2 °F 93% 29.86 in 6.2 mi NE 5.8 mph - N/A   Mostly Cloudy
5:20 AM 30.2 °F - 28.4 °F 93% 29.86 in 6.2 mi Variable 1.2 mph - N/A   Mostly Cloudy
5:50 AM 32.0 °F - 30.2 °F 93% 29.86 in 6.2 mi ESE 1.2 mph - N/A   Mostly Cloudy
6:20 AM 32.0 °F - 30.2 °F 93% 29.89 in 6.2 mi Calm Calm - N/A   Mostly Cloudy
6:50 AM 32.0 °F - 30.2 °F 93% 29.89 in 6.2 mi Calm Calm - N/A   Mostly Cloudy
7:20 AM 32.0 °F - 30.2 °F 93% 29.89 in 3.7 mi Variable 1.2 mph - N/A   Mostly Cloudy
7:50 AM 32.0 °F - 30.2 °F 93% 29.89 in 5.0 mi Calm Calm - N/A   Mostly Cloudy
8:00 AM 32 °F - 30 °F 87%  in 5 mi Calm Calm - -   Mist
8:20 AM 33.8 °F - 32.0 °F 93% 29.89 in 5.0 mi Calm Calm - N/A   Mostly Cloudy
8:50 AM 37.4 °F - 33.8 °F 87% 29.89 in 3.7 mi Variable 1.2 mph - N/A   Mostly Cloudy
9:20 AM 39.2 °F - 33.8 °F 81% 29.89 in 3.7 mi Variable 1.2 mph - N/A   Mostly Cloudy
9:50 AM 41.0 °F - 35.6 °F 81% 29.89 in 2.5 mi Calm Calm - N/A   Mostly Cloudy
10:20 AM 42.8 °F - 35.6 °F 76% 29.89 in 2.5 mi Calm Calm - N/A   Mostly Cloudy
10:50 AM 44.6 °F - 35.6 °F 71% 29.89 in 3.7 mi Variable 1.2 mph - N/A   Mostly Cloudy
11:20 AM 46.4 °F 45.2 °F 32.0 °F 57% 29.86 in 3.7 mi SSW 3.5 mph - N/A   Mostly Cloudy
11:50 AM 48.2 °F - 32.0 °F 54% 29.86 in 6.2 mi South 10.4 mph - N/A   Mostly Cloudy
12:20 PM 50.0 °F - 30.2 °F 47% 29.83 in 6.2 mi South 10.4 mph - N/A   Mostly Cloudy
12:50 PM 51.8 °F - 28.4 °F 41% 29.83 in 6.2 mi South 13.8 mph - N/A   Mostly Cloudy
1:20 PM 51.8 °F - 30.2 °F 44% 29.83 in 6.2 mi SSE 13.8 mph - N/A   Mostly Cloudy
1:50 PM 51.8 °F - 32.0 °F 47% 29.83 in 6.2 mi South 16.1 mph - N/A   Mostly Cloudy
2:00 PM 51 °F - 32 °F 36%  in 12 mi South 16.1 mph - -   Partly Cloudy
2:20 PM 50.0 °F - 33.8 °F 54% 29.83 in 6.2 mi South 20.7 mph - N/A   Mostly Cloudy
2:50 PM 50.0 °F - 32.0 °F 50% 29.83 in 6.2 mi South 18.4 mph - N/A   Mostly Cloudy
3:20 PM 50.0 °F - 30.2 °F 47% 29.86 in 6.2 mi SSE 17.3 mph - N/A   Mostly Cloudy
3:50 PM 48.2 °F - 32.0 °F 54% 29.86 in 6.2 mi ESE 18.4 mph 34.5 mph N/A   Mostly Cloudy
4:20 PM 48.2 °F - 32.0 °F 54% 29.83 in 6.2 mi ESE 18.4 mph - N/A   Mostly Cloudy
4:50 PM 48.2 °F - 32.0 °F 54% 29.83 in 6.2 mi SE 16.1 mph 29.9 mph N/A   Mostly Cloudy
5:20 PM 46.4 °F 40.1 °F 32.0 °F 57% 29.83 in 6.2 mi SE 15.0 mph - N/A   Mostly Cloudy
5:50 PM 48.2 °F - 30.2 °F 50% 29.83 in 6.2 mi ESE 23.0 mph 36.8 mph N/A   Mostly Cloudy
6:20 PM 48.2 °F - 30.2 °F 50% 29.80 in 6.2 mi SE 23.0 mph - N/A   Mostly Cloudy
6:50 PM 48.2 °F - 30.2 °F 50% 29.83 in 6.2 mi SE 18.4 mph 29.9 mph N/A   Mostly Cloudy
7:20 PM 48.2 °F - 28.4 °F 46% 29.80 in 6.2 mi SE 18.4 mph - N/A   Mostly Cloudy
7:50 PM 50.0 °F - 26.6 °F 40% 29.80 in 6.2 mi SSE 19.6 mph 31.1 mph N/A   Mostly Cloudy
8:00 PM 49 °F - 27 °F 30%  in 12 mi SSE 19.6 mph - -   Partly Cloudy
8:20 PM 48.2 °F - 26.6 °F 43% 29.80 in 6.2 mi SSE 19.6 mph 31.1 mph N/A   Mostly Cloudy
8:50 PM 48.2 °F - 26.6 °F 43% 29.80 in 6.2 mi South 20.7 mph 34.5 mph N/A   Mostly Cloudy
9:20 PM 48.2 °F - 26.6 °F 43% 29.80 in 6.2 mi South 19.6 mph 32.2 mph N/A   Mostly Cloudy
9:50 PM 48.2 °F - 26.6 °F 43% 29.80 in 6.2 mi South 19.6 mph 31.1 mph N/A   Mostly Cloudy
10:20 PM 48.2 °F - 26.6 °F 43% 29.83 in 6.2 mi South 18.4 mph 29.9 mph N/A   Mostly Cloudy
10:50 PM 48.2 °F - 26.6 °F 43% 29.80 in 6.2 mi SSE 19.6 mph 31.1 mph N/A   Mostly Cloudy
11:20 PM 48.2 °F - 26.6 °F 43% 29.80 in 6.2 mi SSE 21.9 mph 34.5 mph N/A   Mostly Cloudy
11:50 PM 48.2 °F - 26.6 °F 43% 29.83 in 6.2 mi South 13.8 mph 36.8 mph N/A   Mostly Cloudy